{"data":{"norad_id":56558,"epoch":"2026-05-25T01:45:20.356992Z","epoch_age_seconds":58819,"freshness":"FRESH","line1":"1 56558U 23065BH  26145.07315228  .00000034  00000+0  10775-4 0  9991","line2":"2 56558  43.0027 155.6405 0001227 302.6755  57.3978 15.27577261168112","mean_motion":15.27577261,"eccentricity":0.0001227,"inclination_deg":43.0027,"raan_deg":155.6405,"arg_perigee_deg":302.6755,"mean_anomaly_deg":57.3978,"bstar":1.0775e-5,"rev_number":16811,"period_min":94.266917737263,"perigee_km":482.21542906294,"apogee_km":483.89916614357,"semimajor_km":6861.1942976033,"source":"CELESTRAK","updated_at":"2026-05-25T13:38:18.118682Z"}}